Preview of NWS' New Version of Forecast
This preview is not operational and should not be used for support decisions.

Regional Weather Roundup (RWR)

Issued by Gray - Portland, ME (GYX)

                            
000
ASUS41 KGYX 150910
RWRGYX
WEATHER ROUNDUP FOR MAINE AND NEW HAMPSHIRE
NATIONAL WEATHER SERVICE GRAY ME
500 AM EDT MON OCT 15 2018

MEZ002-005-006-010-012-015-018-020-021-024-026-027-029-151000-
MAINE
  
CITY           SKY/WX    TMP DP  RH WIND       PRES   REMARKS
PORTLAND       FAIR      36  35  96 CALM      30.19F                  
SANFORD        FAIR      28  28 100 CALM      30.19S                  
BAR HARBOR     FAIR      35  34  96 CALM      30.22R                  
WISCASSET      FAIR      31  31 100 CALM      30.20F                  
ROCKLAND       FAIR      34  33  96 CALM      30.19F                  
FRYEBURG       CLOUDY    29  29 100 CALM      30.18S FOG              
LEWISTONAUBURN FAIR      28  27  96 CALM      30.19F                  
AUGUSTA        FOG       34  34 100 S3        30.19F VSB 1/4          
WATERVILLE     FAIR      32  31  96 CALM      30.16                   
BANGOR         FAIR      35  33  92 CALM      30.20S                  
GREENVILLE       N/A     35  31  85 CALM      30.12S                  
MILLINOCKET    CLOUDY    34  31  88 E3        30.17S                  
HOULTON        CLOUDY    37  33  85 S6        30.14R                  
PRESQUE ISLE   CLOUDY    29  27  92 CALM      30.13R                  
FRENCHVILLE    CLOUDY    40  31  70 NW6       30.07S                  
CARIBOU        FAIR      32  29  88 S3        30.11R                  
$$

NHZ002-005-008-009-011-012-014-151000-
NEW HAMPSHIRE
  
CITY           SKY/WX    TMP DP  RH WIND       PRES   REMARKS
PORTSMOUTH     FOG       38  37  96 CALM      30.17F VSB 1/8          
ROCHESTER      FAIR      34  33  96 NW5       30.18S                  
NASHUA         FAIR      35  35 100 CALM      30.20R                  
MANCHESTER     MOCLDY    38  37  97 CALM      30.17S FOG              
CONCORD        FAIR      31  28  89 CALM      30.18F                  
LACONIA        FOG       37  37 100 CALM      30.18S VSB 1/4          
PLYMOUTH       FOG       32  32 100 CALM      30.19S VSB 1/4          
BERLIN         CLOUDY    28  26  92 CALM      30.16S FOG              
WHITEFIELD     FAIR      28  26  92 CALM      30.15S                  
JAFFREY        FOG       34  34 100 CALM      30.17S VSB 1/4          
KEENE          FOG       35  35 100 CALM      30.18S VSB 1/4          
LEBANON        FOG       36  33  89 CALM      30.16F VSB 1/4          
MT WASHINGTON  PTCLDY    28  19  69 SW20        N/A  WCI  15          
$$

VTZ005-007-008-151000-
VERMONT
  
CITY           SKY/WX    TMP DP  RH WIND       PRES   REMARKS
ST JOHNSBURY     N/A     31  31 100 MISG      30.15S                  
MONTPELIER     FAIR      31  31 100 CALM      30.16F                  
BURLINGTON     FAIR      41  37  86 NE3       30.11F                  
$$

MAZ007-012-024-CTZ003-RIZ002-NYZ038-NYZ072-151000-
SOUTHERN NEW ENGLAND AND NY
  
CITY           SKY/WX    TMP DP  RH WIND       PRES   REMARKS
BOSTON         FAIR      47  41  80 SW5       30.20S                  
WORCESTER      FAIR      42  39  89 W6        30.16F                  
NANTUCKET      MOCLDY    53  48  83 SW7       30.21F                  
PROVIDENCE     FAIR      42  40  92 CALM      30.21S                  
HARTFORD       MOCLDY    41  40  96 CALM      30.18F                  
ALBANY         FAIR      40  37  89 CALM      30.15F                  
NEW YORK CITY  LGT RAIN  57  46  66 S5        30.16F                  
$$

ANZ081-ANZ082-ANZ150-NHZ014-MEZ023>029-151000-
COASTAL MARINE OBSERVATIONS
  
STATION/POSITION TIME  TEMP    WIND        PRES    WAVE
                       AIR SEA DIR/SP/G            HT/PER
                 (UTC) (F)     (DEG/KT/KT) (MB)    (FT/S)
MOUNT DESERT ROC 0900   51      70/  2/  2 1023.6R
MATINICUS ROCK   0800   52     100/  6/  6 1022.0R
ISLE OF SHOALS   0800   50     240/  7/  7 1022.2R
JEFFREYS LEDGE   0806      56                N/A     2/ 3
$$

.............KEY..............
   WCI - WIND CHILL
   TC  - TEMPERATURE IN CELSIUS
   VSB - VISIBILITY IN MILES
   HX  - HEAT INDEX
   FAIR- INDICATES FEW OR NO CLOUDS BELOW 12,000 FT, WITH NO 
         SIGNIFICANT WEATHER AND/OR OBSTRUCTIONS TO VISIBILITY.